[[{"header":{"parameterUnit":"m.s-1","parameterCategory":1,"la1":30.2991,"la2":30.254,"lo1":-89.0895,"lo2":-89.0444,"dy":0.0017,"dx":0.0017,"nx":28,"ny":28,"refTime":"2025-05-31T03:00:00:Z","depth":0,"parameterNumber":2,"parameterNumberName":"U-component_of_WINDS"},"data":[0,0,0,0,0,0,0,0,0,0,0,0,0,0,0,0,0,0,0,0,0,0,0,0,0,0,0,0,0,0,0,0,0,0,0,0,0,0,0,0,0,0,0,0,0,0,0,0,0,0,0,0,0,0,0,0,0,0,-1.4188,-1.4189,0,-1.4321,-1.4322,-1.4324,-1.4311,-1.4309,-1.4307,-1.4305,-1.4444,-1.445,-1.4455,0,0,0,0,0,0,0,0,0,0,0,0,0,-1.3924,-1.3929,-1.4187,-1.4189,-1.4191,-1.4321,-1.4323,-1.4324,-1.4311,-1.4309,-1.4306,-1.4304,-1.4442,-1.4449,-1.4456,0,0,0,0,0,0,0,0,0,0,0,0,0,-1.4046,-1.3931,-1.4187,-1.42,-1.4202,-1.432,-1.4323,-1.4325,-1.4312,-1.4308,-1.4305,-1.4302,-1.444,-1.4449,-1.4457,-1.4572,0,0,-1.4483,-1.4487,0,0,0,0,0,0,0,0,-1.4039,-1.4056,-1.4196,-1.4199,-1.4202,-1.4296,-1.4281,-1.4408,-1.4312,-1.427,-1.4304,-1.4301,-1.4398,-1.4409,-1.4442,-1.4579,-1.4585,-1.4484,-1.4489,-1.4492,-1.4495,0,0,0,0,0,0,0,-1.4031,-1.405,-1.424,-1.4198,-1.4202,-1.42,-1.4214,-1.4305,-1.435,-1.4274,-1.4273,-1.4289,-1.4399,-1.4433,-1.4445,-1.4587,-1.4483,-1.4491,-1.4496,-1.45,-1.4826,-1.4829,0,0,0,0,0,0,-1.4019,-1.4043,-1.4236,-1.4244,-1.4111,-1.4207,-1.4223,-1.4269,-1.4349,-1.4358,-1.4291,-1.4288,-1.442,-1.4435,-1.445,-1.4591,-1.4492,-1.45,-1.4505,-1.4822,-1.4827,-1.4831,0,0,0,0,0,0,-1.4013,-1.4036,-1.4231,-1.4144,-1.4168,-1.4215,-1.4267,-1.4273,-1.4308,-1.4362,-1.437,-1.4318,-1.4418,-1.4438,-1.4542,-1.4595,-1.4504,-1.4512,-1.4818,-1.4824,-1.4829,-1.4873,0,0,0,0,0,0,-1.4006,-1.4034,-1.4078,-1.4145,-1.4173,-1.432,-1.427,-1.4278,-1.4322,-1.4319,-1.439,-1.4399,-1.4417,-1.4529,-1.455,-1.4605,-1.4519,-1.4814,-1.4821,-1.4827,-1.4867,-1.4879,-1.489,0,0,0,0,0,-1.3997,-1.4086,-1.408,-1.4104,-1.4228,-1.4323,-1.4339,-1.4358,-1.4327,-1.4371,-1.4406,-1.4396,-1.4585,-1.454,-1.4563,-1.4622,-1.481,-1.4819,-1.4826,-1.4862,-1.4877,-1.4889,0,0,0,0,0,0,-1.4026,-1.4095,-1.409,-1.4203,-1.4257,-1.4321,-1.4378,-1.4373,-1.4439,-1.4433,-1.4455,-1.4471,-1.4576,-1.4609,-1.4557,-1.4738,-1.4694,-1.4707,-1.4713,-1.4727,-1.4738,-1.4729,-1.4526,0,0,0,0,0,-1.4045,-1.4115,-1.4172,-1.4267,-1.4294,-1.4331,-1.4373,-1.4383,-1.4441,-1.4464,-1.4506,-1.4563,-1.4636,-1.4683,-1.4753,-1.4871,-1.4887,-1.4923,-1.4934,-1.4943,-1.4955,-1.5021,-1.5038,-1.4857,-1.4857,-1.4857,0,0,-1.4086,-1.4132,-1.4176,-1.4273,-1.4317,-1.439,-1.4351,-1.443,-1.4485,-1.4476,-1.4577,-1.461,-1.4675,-1.4787,-1.4839,-1.4818,-1.5008,-1.4953,-1.496,-1.4967,-1.5031,-1.5048,-1.5063,-1.4862,-1.4861,-1.486,0,0,-1.4199,-1.424,-1.4324,-1.4368,-1.4433,-1.4457,-1.4477,-1.4542,-1.4563,-1.4664,-1.4659,-1.4725,-1.4849,-1.4896,-1.4936,-1.5066,-1.506,-1.5088,-1.5148,-1.5212,-1.5226,-1.5239,-1.5286,-1.5303,-1.5099,-1.5099,-1.5099,0,-1.4242,-1.4351,-1.4368,-1.4448,-1.4491,-1.4485,-1.4571,-1.4613,-1.4698,-1.4729,-1.4704,-1.486,-1.4903,-1.5026,-1.5058,-1.509,-1.5115,-1.5081,-1.5223,-1.5236,-1.5248,-1.5293,-1.5311,-1.5102,-1.5102,-1.5102,-1.5101,0,-1.4402,-1.4478,-1.4537,-1.4619,-1.4669,-1.4751,-1.4781,-1.483,-1.4836,-1.4863,-1.4966,-1.5018,-1.5098,-1.5128,-1.5134,-1.5252,-1.5237,-1.5217,-1.5174,-1.5268,-1.5311,-1.5329,-1.5107,-1.5106,-1.5105,-1.5104,0,0,-1.4538,-1.4626,-1.4648,-1.4686,-1.4757,-1.4817,-1.4899,-1.4976,-1.5018,-1.5077,-1.5148,-1.5252,-1.5234,-1.5279,-1.5291,-1.5347,-1.5448,-1.532,-1.5322,-1.5343,-1.5582,-1.5598,-1.5618,-1.5443,-1.5446,-1.5449,-1.5577,0,-1.4659,-1.4803,-1.482,-1.495,-1.5021,-1.5016,-1.5087,-1.514,-1.5167,-1.5232,-1.5262,-1.5336,-1.5306,-1.5334,-1.5389,-1.5424,-1.5496,-1.5414,-1.551,-1.5513,-1.5495,-1.564,-1.5657,-1.5775,-1.5594,-1.5597,-1.5599,0,-1.4819,-1.4881,-1.5018,-1.5079,-1.511,-1.5174,-1.5246,-1.5308,-1.5367,-1.5383,-1.5434,-1.5438,-1.5524,-1.5475,-1.5595,-1.5539,-1.5579,-1.5602,-1.5607,-1.5618,-1.5563,-1.5656,-1.5813,-1.5832,-1.5626,-1.5623,-1.5622,0,-1.4906,-1.5024,-1.5121,-1.5153,-1.5227,-1.5272,-1.5306,-1.5362,-1.5407,-1.547,-1.55,-1.5573,-1.5614,-1.567,-1.5694,-1.5656,-1.5813,-1.5766,-1.583,-1.5829,-1.5864,-1.5862,-1.6031,-1.5888,-1.5887,-1.5887,-1.5886,0,-1.504,-1.5124,-1.5161,-1.5221,-1.5315,-1.5334,-1.5427,-1.5458,-1.5508,-1.5574,-1.5574,-1.5637,-1.5664,-1.5731,-1.5751,-1.5847,-1.5865,-1.5881,-1.5886,-1.5882,-1.588,-1.591,-1.5903,-1.5892,-1.5891,-1.589,-1.5889,0,-1.5154,-1.5182,-1.5287,-1.5349,-1.5366,-1.5433,-1.5486,-1.5544,-1.557,-1.5654,-1.5675,-1.5716,-1.5795,-1.5824,-1.5921,-1.5934,-1.6046,-1.6043,-1.6026,-1.6027,-1.6089,-1.6084,-1.6285,-1.6313,-1.6149,-1.6151,-1.6152,0,-1.5238,-1.5302,-1.537,-1.5414,-1.5449,-1.552,-1.5566,-1.5587,-1.5635,-1.5707,-1.5757,-1.5836,-1.5899,-1.6026,-1.6065,-1.6139,-1.6139,-1.6204,-1.615,-1.6145,-1.6141,-1.6138,-1.6145,-1.6215,-1.6216,-1.6218,-1.6219,0,-1.5385,-1.5396,-1.5462,-1.5533,-1.5587,-1.5645,-1.57,-1.5737,-1.5766,-1.582,-1.5901,-1.595,-1.6048,-1.6126,-1.6202,-1.6237,-1.6234,-1.6235,-1.6254,-1.6252,-1.624,-1.6248,-1.6055,-1.6231,-1.623,-1.6229,-1.6228,-1.6228,-1.5488,-1.5545,-1.5601,-1.5675,-1.5719,-1.577,-1.5828,-1.5861,-1.5928,-1.6009,-1.6017,-1.6104,-1.6162,-1.6263,-1.6301,-1.637,-1.6352,-1.6379,-1.6386,-1.6393,-1.6398,-1.6227,-1.6384,-1.6383,-1.6383,-1.6383,-1.6383,0,-1.5636,-1.5672,-1.5739,-1.5816,-1.5874,-1.5864,-1.5925,-1.5975,-1.6051,-1.6104,-1.6167,-1.626,-1.6335,-1.638,-1.6456,-1.6502,-1.6503,-1.6522,-1.6519,-1.6528,-1.6409,-1.6386,-1.652,-1.652,-1.652,-1.652,-1.652,-1.652,-1.572,-1.5816,-1.5833,-1.5951,-1.5987,-1.6071,-1.6107,-1.6155,-1.6198,-1.6301,-1.6363,-1.6391,-1.6442,-1.6522,-1.6591,-1.6602,-1.6631,-1.6652,-1.6662,-1.655,-1.6536,-1.6523,-1.6501,-1.6657,-1.6658,-1.6775,-1.6776,-1.6776]},{"header":{"parameterUnit":"m.s-1","parameterCategory":1,"la1":30.2991,"la2":30.254,"lo1":-89.0895,"lo2":-89.0444,"dy":0.0017,"dx":0.0017,"nx":28,"ny":28,"refTime":"2025-05-31T03:00:00:Z","depth":0,"parameterNumber":3,"parameterNumberName":"V-component_of_WINDS"},"data":[0,0,0,0,0,0,0,0,0,0,0,0,0,0,0,0,0,0,0,0,0,0,0,0,0,0,0,0,0,0,0,0,0,0,0,0,0,0,0,0,0,0,0,0,0,0,0,0,0,0,0,0,0,0,0,0,0,0,-5.7495,-5.7497,0,-5.7618,-5.7619,-5.7621,-5.7561,-5.7557,-5.7554,-5.7551,-5.7671,-5.7677,-5.7683,0,0,0,0,0,0,0,0,0,0,0,0,0,-5.7203,-5.7209,-5.7495,-5.7497,-5.7498,-5.7618,-5.7619,-5.7621,-5.7561,-5.7557,-5.7553,-5.755,-5.7669,-5.7676,-5.7683,0,0,0,0,0,0,0,0,0,0,0,0,0,-5.7328,-5.721,-5.7495,-5.7483,-5.7483,-5.7617,-5.7619,-5.7621,-5.7562,-5.7557,-5.7552,-5.7548,-5.7666,-5.7675,-5.7684,-5.7835,0,0,-5.7712,-5.7716,0,0,0,0,0,0,0,0,-5.7321,-5.7339,-5.7483,-5.7484,-5.7485,-5.7569,-5.756,-5.7693,-5.7563,-5.7532,-5.7551,-5.7546,-5.764,-5.7651,-5.7684,-5.7841,-5.7846,-5.7713,-5.7719,-5.7723,-5.7725,0,0,0,0,0,0,0,-5.7312,-5.7333,-5.7544,-5.7485,-5.7486,-5.7469,-5.7482,-5.7585,-5.7611,-5.7534,-5.753,-5.7546,-5.764,-5.7676,-5.7687,-5.7848,-5.7713,-5.7721,-5.7727,-5.773,-5.8133,-5.8138,0,0,0,0,0,0,-5.7305,-5.7326,-5.754,-5.7547,-5.739,-5.7478,-5.7492,-5.7547,-5.761,-5.7615,-5.755,-5.7543,-5.7662,-5.7676,-5.7691,-5.7871,-5.7722,-5.7731,-5.7736,-5.8127,-5.8134,-5.8139,0,0,0,0,0,0,-5.7299,-5.7325,-5.7535,-5.7436,-5.7461,-5.7489,-5.755,-5.7552,-5.7588,-5.7622,-5.7625,-5.7582,-5.7659,-5.7678,-5.78,-5.7874,-5.7735,-5.7744,-5.8121,-5.8129,-5.8137,-5.8233,0,0,0,0,0,0,-5.7291,-5.7323,-5.7382,-5.7438,-5.7467,-5.7644,-5.7555,-5.7557,-5.7604,-5.7596,-5.7653,-5.7658,-5.7657,-5.7787,-5.7809,-5.7884,-5.7751,-5.8115,-5.8125,-5.8134,-5.8224,-5.8244,-5.8261,0,0,0,0,0,-5.7281,-5.7404,-5.7386,-5.7412,-5.7542,-5.7649,-5.7665,-5.7664,-5.7611,-5.7669,-5.7691,-5.7656,-5.7863,-5.78,-5.7824,-5.7904,-5.811,-5.8122,-5.8133,-5.8215,-5.824,-5.826,0,0,0,0,0,0,-5.7354,-5.7411,-5.7391,-5.7536,-5.7589,-5.7638,-5.7713,-5.7689,-5.7756,-5.7745,-5.7738,-5.7752,-5.7878,-5.7903,-5.7832,-5.8052,-5.7978,-5.7995,-5.8032,-5.8055,-5.8073,-5.8064,-5.7758,0,0,0,0,0,-5.7388,-5.7472,-5.7516,-5.7639,-5.7667,-5.7685,-5.7732,-5.7726,-5.7779,-5.78,-5.783,-5.7881,-5.7957,-5.8007,-5.8079,-5.8227,-5.8237,-5.8293,-5.8312,-5.8327,-5.8341,-5.842,-5.8445,-5.8178,-5.8178,-5.8177,0,0,-5.7457,-5.7498,-5.7551,-5.7655,-5.7695,-5.778,-5.7704,-5.7798,-5.786,-5.7813,-5.7931,-5.7955,-5.8011,-5.8146,-5.8207,-5.8171,-5.8418,-5.8342,-5.8353,-5.836,-5.8434,-5.8459,-5.8482,-5.8186,-5.8184,-5.8183,0,0,-5.7627,-5.7667,-5.7774,-5.7816,-5.7878,-5.7889,-5.7915,-5.7969,-5.7983,-5.8102,-5.8068,-5.8141,-5.8273,-5.8314,-5.8352,-5.8537,-5.8506,-5.856,-5.8656,-5.8732,-5.8753,-5.8772,-5.8837,-5.886,-5.8575,-5.8575,-5.8575,0,-5.7705,-5.7834,-5.7832,-5.7928,-5.7974,-5.7938,-5.8044,-5.8084,-5.8165,-5.8197,-5.8155,-5.8319,-5.8355,-5.8498,-5.8543,-5.8576,-5.8603,-5.8553,-5.8751,-5.877,-5.8787,-5.8848,-5.8873,-5.8581,-5.858,-5.858,-5.8579,0,-5.7926,-5.8016,-5.8094,-5.8176,-5.823,-5.8331,-5.8342,-5.8397,-5.8387,-5.8402,-5.8521,-5.8563,-5.8642,-5.8675,-5.8665,-5.8817,-5.8793,-5.8752,-5.8676,-5.8818,-5.8876,-5.89,-5.859,-5.8588,-5.8586,-5.8584,0,0,-5.8145,-5.8225,-5.8254,-5.829,-5.8355,-5.8423,-5.8521,-5.8601,-5.8647,-5.8704,-5.8785,-5.8897,-5.8859,-5.8903,-5.8897,-5.8964,-5.9106,-5.8914,-5.8915,-5.8947,-5.9274,-5.9304,-5.9332,-5.9086,-5.9091,-5.9094,-5.9269,0,-5.8319,-5.8494,-5.8495,-5.8655,-5.8737,-5.8703,-5.8788,-5.8836,-5.8853,-5.8923,-5.894,-5.9019,-5.8964,-5.899,-5.9055,-5.9075,-5.9171,-5.9062,-5.916,-5.9163,-5.9146,-5.9362,-5.9395,-5.9558,-5.9292,-5.9296,-5.9298,0,-5.8545,-5.8612,-5.8781,-5.8833,-5.8867,-5.8945,-5.9017,-5.9085,-5.9137,-5.9144,-5.9193,-5.9177,-5.9274,-5.9197,-5.933,-5.9256,-5.9295,-5.9311,-5.9317,-5.9326,-5.9239,-5.9375,-5.961,-5.9634,-5.9334,-5.9331,-5.9329,0,-5.8687,-5.8819,-5.8936,-5.8968,-5.9033,-5.9087,-5.9116,-5.9165,-5.9212,-5.9274,-5.9304,-5.9377,-5.9416,-5.9471,-5.9473,-5.9417,-5.9608,-5.9531,-5.9614,-5.9614,-5.9655,-5.9653,-5.9899,-5.9683,-5.9682,-5.9682,-5.9681,0,-5.8881,-5.8985,-5.9001,-5.9074,-5.9189,-5.9187,-5.9301,-5.9324,-5.9367,-5.9442,-5.9416,-5.9486,-5.9486,-5.9557,-5.9559,-5.9668,-5.9686,-5.9693,-5.9692,-5.9695,-5.9694,-5.972,-5.9708,-5.9688,-5.9687,-5.9686,-5.9685,0,-5.9059,-5.9074,-5.92,-5.9251,-5.9266,-5.9349,-5.9391,-5.9459,-5.9473,-5.9568,-5.959,-5.9611,-5.9693,-5.9701,-5.9796,-5.9797,-5.9929,-5.9916,-5.9912,-5.9909,-5.9992,-5.9984,-6.0263,-6.0299,-6.006,-6.0063,-6.0065,0,-5.9181,-5.9261,-5.9321,-5.937,-5.9403,-5.9482,-5.9531,-5.9531,-5.9583,-5.9648,-5.9708,-5.9787,-5.9851,-5.9983,-6.0006,-6.0077,-6.0066,-6.0158,-6.0076,-6.0076,-6.0066,-6.0061,-6.0068,-6.0174,-6.0177,-6.0179,-6.018,0,-5.9396,-5.9399,-5.9472,-5.9547,-5.9606,-5.9664,-5.9719,-5.976,-5.9767,-5.9826,-5.991,-5.996,-6.0057,-6.0136,-6.0206,-6.0233,-6.0208,-6.0206,-6.0229,-6.0233,-6.0227,-6.023,-5.9954,-6.02,-6.0198,-6.0196,-6.0195,-6.0195,-5.9549,-5.9618,-5.9671,-5.9752,-5.9794,-5.9845,-5.9911,-5.9934,-6.0006,-6.0086,-6.0082,-6.0174,-6.0223,-6.0315,-6.0348,-6.0418,-6.0387,-6.0421,-6.0429,-6.0437,-6.0445,-6.0216,-6.0431,-6.0431,-6.043,-6.043,-6.0429,0,-5.9762,-5.9794,-5.9869,-5.9947,-6.001,-5.9983,-6.0042,-6.0096,-6.0178,-6.0227,-6.0291,-6.0387,-6.0463,-6.0492,-6.0566,-6.0617,-6.0607,-6.0636,-6.0631,-6.0638,-6.047,-6.0442,-6.0643,-6.0642,-6.0642,-6.0642,-6.0642,-6.0642,-5.988,-5.9995,-6.0005,-6.0139,-6.017,-6.0263,-6.0298,-6.0345,-6.0384,-6.0493,-6.0557,-6.0576,-6.0616,-6.0692,-6.076,-6.0766,-6.0794,-6.0828,-6.0829,-6.0671,-6.065,-6.0629,-6.0603,-6.0834,-6.0835,-6.0991,-6.0993,-6.0994]}]]